Location: Newark
(46.9000°N, 28.3500°E)
Time: 05:38:59
(UTC+00:00)

Explorer 7 - Pass Details

Date: 31 August 2019
Orbit: 485 x 680 km, 50.3° (Epoch: 19 September)

Event Time Altitude Azimuth Distance (km) Brightness Sun altitude
Rises 10:15:26 0° 292° (WNW) 2,964 10.4 51.7°
Reaches altitude 10° 10:17:55 10° 285° (WNW) 2,023 9.7 51.7°
Maximum altitude 10:22:16 40° 216° (SW) 900 9.4 51.6°
Drops below altitude 10° 10:26:21 10° 147° (SSE) 1,899 10.2 51.5°
Sets 10:28:38 0° 139° (SE) 2,760 10.7 51.5°
